sat.trackr.live / text

‹ back to catalog

STARLINK-11393 [DTC]

NORAD 62016 · 2024-213J

PAYLOAD ACTIVE UNKNOWN

§ Identity

Operator
Country
US
Launch date
2024-11-18
Launch site
AFWTR
Launch vehicle
Mass (kg)
RCS (m²)

Purposes: comms

External: N2YO · Heavens-Above · Gunter

§ Orbital elements

Epoch: 2026-05-25T01:24:15.079104Z

Period
91.73 min
Inclination
53.1581°
Eccentricity
0.0001015
Mean motion
15.69760365 rev/d
Perigee alt
358.9 km
Apogee alt
360.3 km
Semi-major
6,737.7 km
B*
1.3525e-3
RAAN
24.5052°
Arg perigee
91.6101°
Mean anomaly
268.5034°
Rev number
8,691

§ Raw data

STARLINK-11393 [DTC]1 62016U 24213J   26145.05850786  .00166950  00000+0  13525-2 0  99982 62016  53.1581  24.5052 0001015  91.6101 268.5034 15.69760365 86913

JSON: /api/v1/satellites/62016 · /tle

For live sub-satellite position, see the globe view (requires WebGL).

§ Visibility from observer

Set your observer location to see the next 7 days of passes ≥ 10°. The values pass through the URL so the page stays shareable.

No JS? Fill the form by hand. The geolocation button needs JavaScript.